Temp
7 7 7 7 7 6 6 6 5 5 5 5 5 5 5 5 5 5 5 5 5 4 4 4 4 4 4 5 5 5 4 5 4 5 5 4 5 4 4 4 4 4 4
7 7 7 7 6 6 6 6 6 5 5 5 5 5 5 5 5 5 5 5 5 4 4 5 5 5 5 5 5 5 5 5 5 5 5 5 5 4 4 4 4 3 3
8 7 7 7 7 6 6 6 6 6 5 6 5 5 5 5 5 5 5 5 4 5 5 5 5 5 5 5 5 5 5 5 5 5 5 5 5 4 4 4 4 3 3
8 7 7 7 7 7 6 6 6 6 6 6 6 5 5 6 6 6 5 5 4 5 5 5 5 5 5 5 5 4 4 5 5 5 4 4 4 4 4 4 4 4 4
7 7 7 7 7 6 6 6 6 6 6 6 6 6 6 6 6 5 5 5 5 5 4 4 4 4 4 4 4 4 4 4 4 4 4 4 4 4 4 4 4 4 4
7 7 7 7 6 6 6 6 6 6 6 6 6 6 6 6 5 5 5 5 4 4 4 4 4 4 4 4 4 4 4 3 3 3 3 3 3 3 3 3 3 3 3
7 7 7 7 6 6 6 6 6 6 6 6 6 6 6 6 5 5 4 4 4 4 4 4 4 3 3 3 3 3 3 3 3 3 3 3 3 3 3 3 3 3 3
7 7 7 7 7 6 6 6 6 6 6 6 6 6 6 5 5 4 4 4 4 4 4 3 3 3 3 3 3 3 3 3 3 3 3 3 3 3 3 3 3 3 3
8 7 7 7 6 6 6 6 6 6 6 6 6 6 5 5 5 4 4 4 4 3 3 3 3 3 3 3 3 3 3 3 3 3 3 3 3 3 3 3 4 4 4
8 8 7 7 6 6 6 6 6 6 5 5 5 5 5 5 5 4 4 4 3 3 3 3 3 2 2 2 2 2 3 3 3 2 2 3 3 3 3 4 4 4 4
8 8 7 7 6 6 6 6 6 5 5 5 5 5 5 5 4 4 4 3 3 2 2 2 2 2 2 2 2 2 2 2 2 2 3 3 3 3 3 3 4 3 3
7 7 7 7 6 6 6 6 5 5 5 4 4 4 4 4 4 3 3 3 3 2 2 2 2 2 2 2 2 2 2 2 2 2 2 3 3 3 3 3 3 3 3
7 7 7 6 6 6 6 5 5 5 5 4 4 4 4 4 3 3 3 2 2 2 2 2 2 2 1 1 2 2 1 1 2 2 2 3 3 3 3 3 3 3 3
6 6 6 6 6 6 6 5 5 4 4 4 4 4 3 3 3 2 2 2 2 2 2 2 1 1 1 1 1 1 1 1 1 2 2 2 2 2 2 3 3 3 3
6 6 6 6 6 5 5 5 5 4 4 4 3 3 3 2 2 2 1 2 2 1 1 1 1 1 1 1 1 1 1 1 1 2 2 2 2 2 2 2 2 2 2
6 6 6 5 5 5 5 5 5 4 4 3 3 3 3 2 2 2 1 1 1 1 1 1 1 1 1 1 1 1 1 1 1 2 2 2 2 2 2 2 2 2 2
5 5 5 6 5 5 5 5 4 4 4 3 3 3 2 2 2 2 1 1 1 1 1 1 1 1 1 1 1 1 1 1 1 2 2 2 2 2 2 2 2 2 2
5 5 5 5 5 5 4 4 4 4 4 3 3 3 2 2 2 2 2 1 1 1 1 1 1 0 0 1 0 0 1 1 1 1 2 2 2 1 2 1 1 1 1
5 5 5 5 5 5 5 4 4 4 4 3 3 3 2 2 2 2 1 1 1 1 1 1 0 -0 -0 0 0 0 0 1 1 1 1 1 2 1 1 1 1 1 1
5 5 5 4 5 5 5 4 4 4 4 3 3 3 2 2 2 1 1 1 1 1 0 0 0 0 -1 -0 -0 0 0 1 1 1 1 1 1 1 1 1 0 1 1
6 6 5 5 4 5 4 4 4 3 3 3 3 3 3 2 2 1 1 1 0 0 -0 -0 -0 -0 -0 -0 -0 -0 0 0 0 0 0 0 1 1 1 0 0 -0 -0
6 5 5 4 4 4 4 4 4 4 3 3 3 3 3 2 2 1 1 1 1 0 -0 -0 -1 -1 -1 -1 -1 -1 -0 -0 -0 -0 -0 0 0 0 0 -0 -0 -0 -0
6 6 5 4 4 4 4 3 4 3 4 3 3 3 3 2 2 1 1 1 1 0 -0 -1 -1 -1 -1 -1 -1 -1 -1 -1 -0 -1 -1 -0 -0 -0 -0 -0 -1 -1 -1
6 6 5 5 5 4 4 3 4 3 3 3 3 3 3 2 2 2 1 1 1 0 -0 -1 -2 -2 -2 -2 -2 -2 -2 -1 -1 -1 -1 -1 -1 -1 -1 -1 -1 -1 -1
7 6 6 5 5 5 4 3 3 4 3 3 3 3 3 2 2 2 1 1 1 -0 -1 -1 -1 -2 -2 -2 -2 -2 -2 -2 -2 -2 -1 -1 -1 -1 -1 -1 -1 -2 -2
7 6 6 6 6 5 5 4 3 4 3 3 4 4 3 2 2 2 2 1 1 -0 -1 -1 -2 -2 -2 -3 -2 -2 -2 -2 -2 -2 -2 -2 -1 -1 -2 -2 -2 -2 -2
Height
3187 3188 3188 3188 3188 3187 3187 3187 3186 3186 3186 3187 3187 3187 3186 3186 3186 3187 3190 3190 3190 3189 3189 3188 3188 3187 3187 3186 3186 3185 3184 3183 3182 3181 3180 3178 3178 3176 3175 3174 3173 3172 3171
3186 3188 3189 3189 3188 3188 3187 3187 3186 3186 3187 3186 3186 3187 3187 3187 3186 3188 3190 3190 3190 3190 3189 3189 3188 3188 3188 3188 3187 3186 3184 3183 3181 3180 3179 3178 3176 3175 3174 3174 3173 3171 3170
3187 3188 3188 3188 3188 3188 3187 3186 3187 3187 3187 3187 3187 3187 3188 3188 3190 3191 3191 3191 3191 3191 3190 3190 3190 3190 3189 3189 3187 3186 3185 3183 3182 3180 3179 3177 3176 3175 3174 3173 3172 3171 3170
3187 3188 3188 3187 3187 3187 3187 3187 3186 3186 3187 3187 3187 3188 3188 3189 3190 3191 3191 3192 3192 3191 3192 3192 3191 3191 3190 3189 3188 3186 3185 3184 3182 3180 3178 3176 3175 3173 3172 3172 3170 3169 3169
3187 3187 3187 3187 3186 3186 3186 3187 3186 3186 3186 3187 3187 3188 3188 3190 3192 3193 3193 3193 3192 3193 3193 3193 3192 3192 3191 3190 3189 3187 3186 3184 3182 3180 3178 3176 3174 3173 3172 3171 3170 3168 3167
3187 3187 3186 3186 3186 3186 3186 3186 3185 3185 3185 3186 3187 3188 3189 3190 3192 3193 3194 3194 3194 3195 3194 3194 3194 3193 3192 3190 3189 3187 3185 3183 3181 3179 3177 3175 3174 3173 3171 3170 3169 3168 3167
3186 3186 3186 3186 3186 3186 3186 3185 3185 3186 3186 3186 3187 3188 3189 3191 3193 3194 3195 3195 3196 3196 3196 3196 3195 3194 3192 3190 3188 3187 3185 3183 3180 3178 3176 3175 3174 3173 3171 3170 3168 3167 3166
3185 3186 3186 3186 3186 3186 3185 3185 3185 3185 3186 3187 3188 3190 3191 3193 3194 3195 3196 3197 3197 3197 3197 3197 3196 3194 3192 3191 3189 3187 3184 3182 3180 3178 3176 3175 3174 3173 3171 3170 3169 3168 3166
3185 3185 3185 3185 3185 3185 3185 3185 3185 3185 3186 3187 3189 3191 3192 3194 3195 3196 3197 3198 3199 3198 3198 3197 3196 3194 3193 3191 3190 3187 3184 3182 3180 3178 3177 3175 3174 3173 3172 3170 3169 3168 3167
3185 3185 3185 3185 3184 3184 3185 3185 3186 3186 3186 3188 3189 3191 3193 3194 3196 3197 3198 3199 3200 3200 3199 3197 3196 3194 3192 3190 3189 3187 3184 3182 3180 3178 3177 3175 3175 3174 3172 3170 3169 3167 3166
3184 3184 3185 3184 3185 3184 3184 3186 3186 3187 3188 3189 3191 3192 3193 3195 3197 3198 3199 3199 3199 3199 3199 3197 3195 3193 3191 3189 3187 3185 3183 3182 3180 3178 3177 3176 3175 3174 3172 3170 3168 3166 3165
3183 3183 3184 3185 3184 3184 3185 3186 3187 3188 3189 3190 3191 3192 3194 3195 3197 3198 3199 3199 3199 3199 3198 3197 3195 3193 3190 3188 3185 3184 3183 3181 3179 3178 3177 3176 3175 3174 3172 3169 3167 3165 3163
3182 3182 3182 3183 3184 3185 3185 3186 3187 3188 3190 3191 3192 3193 3194 3196 3197 3198 3199 3199 3199 3198 3198 3197 3195 3192 3190 3188 3185 3183 3182 3180 3179 3178 3176 3175 3174 3171 3170 3168 3166 3164 3162
3180 3181 3182 3182 3183 3184 3184 3186 3186 3188 3190 3191 3192 3193 3194 3195 3197 3198 3198 3199 3199 3199 3197 3196 3194 3192 3189 3187 3185 3183 3182 3181 3179 3178 3176 3175 3173 3171 3168 3165 3165 3163 3161
3179 3180 3181 3182 3182 3183 3184 3186 3186 3188 3190 3191 3192 3193 3194 3196 3197 3198 3198 3198 3198 3197 3196 3195 3194 3191 3188 3186 3185 3183 3182 3181 3179 3178 3176 3174 3172 3170 3167 3165 3163 3162 3159
3178 3179 3180 3181 3182 3182 3184 3185 3186 3188 3190 3191 3192 3194 3195 3196 3197 3197 3198 3198 3197 3196 3196 3195 3193 3191 3188 3185 3184 3183 3181 3179 3178 3176 3175 3173 3170 3168 3166 3164 3161 3158 3155
3176 3178 3179 3181 3182 3182 3183 3185 3186 3188 3189 3190 3191 3193 3195 3196 3195 3196 3196 3197 3196 3195 3194 3193 3191 3190 3187 3185 3182 3181 3179 3178 3176 3174 3173 3170 3168 3166 3163 3161 3158 3154 3151
3174 3175 3178 3179 3181 3182 3182 3184 3185 3187 3188 3189 3190 3192 3194 3194 3195 3195 3194 3194 3194 3194 3192 3191 3189 3187 3184 3182 3180 3179 3177 3176 3175 3173 3171 3169 3167 3164 3161 3158 3155 3152 3150
3173 3175 3176 3178 3179 3181 3182 3183 3184 3185 3186 3187 3189 3191 3192 3192 3193 3193 3193 3193 3192 3192 3190 3189 3187 3185 3183 3181 3179 3177 3175 3174 3172 3171 3168 3166 3164 3162 3159 3155 3152 3149 3147
3172 3174 3176 3177 3179 3180 3180 3182 3183 3185 3185 3186 3188 3189 3190 3191 3192 3192 3191 3191 3191 3190 3189 3187 3185 3183 3181 3180 3177 3175 3173 3171 3170 3168 3166 3164 3162 3159 3156 3153 3150 3146 3143
3171 3173 3174 3176 3177 3178 3179 3180 3181 3182 3184 3185 3186 3188 3189 3189 3190 3190 3190 3189 3189 3188 3188 3186 3184 3182 3179 3177 3175 3173 3171 3169 3168 3166 3164 3162 3159 3156 3154 3152 3148 3143 3140
3169 3171 3172 3174 3175 3177 3177 3178 3179 3180 3182 3183 3185 3186 3186 3187 3188 3188 3188 3187 3187 3186 3185 3184 3183 3181 3178 3175 3172 3170 3168 3168 3165 3163 3160 3158 3156 3153 3151 3149 3145 3140 3138
3166 3168 3171 3172 3173 3174 3175 3175 3176 3178 3180 3181 3182 3183 3184 3184 3185 3186 3186 3186 3185 3184 3183 3182 3180 3179 3176 3173 3170 3168 3165 3163 3160 3159 3157 3155 3153 3150 3146 3144 3141 3138 3135
3163 3165 3167 3169 3170 3171 3173 3174 3173 3176 3177 3178 3179 3180 3181 3182 3183 3184 3184 3184 3183 3183 3182 3180 3179 3176 3174 3172 3169 3166 3163 3161 3157 3155 3154 3151 3148 3145 3142 3140 3137 3133 3129
3160 3163 3165 3166 3168 3169 3170 3171 3172 3174 3173 3174 3176 3177 3179 3180 3181 3181 3181 3181 3181 3181 3180 3178 3176 3174 3172 3170 3167 3163 3160 3157 3155 3152 3149 3147 3145 3142 3139 3136 3133 3129 3124
3158 3160 3162 3163 3164 3166 3167 3168 3169 3171 3170 3172 3173 3174 3176 3177 3178 3178 3178 3179 3179 3179 3177 3176 3175 3172 3170 3167 3165 3162 3158 3155 3151 3148 3145 3143 3140 3137 3135 3131 3128 3124 3119
Wind_Speed
4 3 4 3 3 3 2 2 3 3 3 4 5 4 3 3 3 4 4 4 4 5 5 4 4 5 4 3 2 3 3 3 5 3 5 11 7 6 6 7 7 4 2
5 5 3 2 2 2 2 2 3 3 4 3 4 5 5 5 4 2 2 3 4 3 4 5 5 5 5 5 5 5 5 6 7 8 9 9 8 6 9 9 6 8 4
5 4 3 2 2 3 2 2 3 3 3 2 3 3 4 4 3 3 4 5 4 5 6 7 6 7 7 7 7 7 7 7 7 7 6 7 7 6 7 6 5 4 2
5 5 4 2 1 2 2 2 1 2 2 1 0 1 2 2 1 5 6 7 8 8 8 7 8 8 8 8 7 7 7 7 7 8 8 8 8 7 5 4 5 6 8
5 5 4 2 0 1 2 1 2 2 1 1 1 1 1 2 6 8 8 8 7 8 8 9 8 8 7 7 7 8 9 9 9 9 8 7 7 7 6 6 5 6 7
5 5 4 1 0 1 2 1 2 3 3 4 5 5 5 7 11 12 11 10 9 9 8 7 7 7 7 10 12 13 13 12 12 11 10 9 7 6 6 6 5 5 6
6 5 4 2 1 1 2 2 3 4 5 6 8 8 9 10 12 12 11 10 10 8 7 7 6 8 11 13 14 14 14 14 13 12 10 8 7 7 7 7 7 7 7
4 4 3 1 1 2 2 3 5 7 7 8 9 10 10 10 12 12 11 9 8 7 7 7 9 11 12 13 14 15 15 15 13 11 9 8 7 7 7 7 7 7 7
2 3 2 1 2 2 3 4 7 8 9 9 10 11 10 10 12 11 9 8 7 7 8 9 10 12 13 14 14 15 15 14 13 11 9 8 8 7 7 8 8 8 9
3 1 2 2 2 3 3 5 6 8 9 11 11 10 10 11 11 10 8 7 7 8 9 10 13 14 15 16 16 16 15 14 12 12 10 9 9 9 9 9 9 10 11
2 3 1 2 2 4 4 5 6 7 9 10 9 8 9 11 10 8 6 5 6 8 10 13 15 16 17 18 18 17 16 13 11 11 10 9 10 10 11 10 10 11 12
4 3 2 2 2 4 5 6 6 7 10 10 8 7 9 10 9 6 4 5 6 8 11 14 16 18 18 20 20 19 15 12 12 11 10 10 10 10 9 10 11 12 14
7 4 3 3 3 3 5 5 6 7 9 9 6 5 7 8 6 3 2 4 7 10 12 15 17 19 19 18 19 17 14 13 12 12 13 13 14 14 13 12 14 14 14
10 6 3 3 4 4 5 6 7 8 9 9 6 5 6 6 5 2 1 4 7 10 13 15 17 18 19 18 16 14 12 11 10 11 12 12 14 14 15 16 15 15 15
11 7 4 3 4 4 5 5 7 8 9 9 7 6 6 6 5 3 2 5 8 12 14 16 17 17 18 18 15 12 11 9 8 8 9 10 11 12 13 14 14 13 11
12 8 5 3 3 4 4 5 5 7 8 9 7 5 6 6 6 6 5 6 8 11 13 15 16 16 16 16 15 13 11 9 7 7 8 9 10 10 11 13 15 16 16
12 9 7 4 3 4 3 3 3 6 7 8 8 6 6 6 7 7 6 7 8 11 14 16 16 16 16 16 15 14 12 10 8 8 8 10 12 12 13 14 15 17 19
11 10 7 6 5 4 5 3 3 6 7 8 8 7 7 6 6 6 7 7 8 11 13 15 17 17 17 17 18 15 13 11 9 9 9 11 12 13 14 15 15 17 19
11 9 8 7 6 4 4 3 4 6 8 8 8 8 7 7 6 6 6 8 9 11 13 14 17 17 15 16 16 15 13 11 11 11 11 12 13 14 15 16 17 18 20
12 12 7 7 6 4 3 2 3 5 6 8 9 9 8 7 6 6 6 7 9 10 12 14 15 16 16 15 16 15 14 12 13 13 13 14 14 15 16 17 18 19 21
12 11 9 7 6 5 3 3 3 5 6 8 9 9 8 7 7 6 6 7 7 8 10 13 14 15 17 17 16 17 15 13 14 14 15 16 16 17 18 19 19 19 21
13 13 11 10 8 6 5 4 4 6 8 10 10 9 8 8 7 7 6 6 6 8 10 12 14 16 18 19 19 19 19 16 15 16 16 17 18 18 19 20 20 20 21
14 14 11 10 8 6 6 5 4 5 7 7 7 8 9 9 8 7 6 5 4 7 10 12 13 16 19 20 20 21 22 21 20 18 18 19 20 20 21 22 22 22 22
11 16 16 14 11 9 8 6 3 6 8 9 10 12 10 9 8 8 7 6 5 7 10 11 12 15 17 20 20 20 20 21 21 22 19 20 21 21 22 23 24 24 24
11 14 15 15 14 12 11 7 4 9 10 12 11 10 9 8 9 9 8 7 8 10 11 11 12 13 17 19 21 21 20 20 20 21 22 22 22 22 23 24 25 25 26
12 10 13 17 17 15 14 10 8 12 10 12 10 10 9 10 9 9 10 10 12 15 14 15 13 13 16 20 21 23 22 21 21 21 21 23 24 24 24 24 25 26 27
Wind_Direction
169 166 127 106 88 66 25 334 308 303 303 309 311 295 285 276 280 300 3 15 20 35 56 42 29 36 40 46 31 24 17 357 15 11 315 326 342 24 18 2 4 12 13
171 158 128 112 86 36 11 341 322 316 316 310 304 295 285 270 259 291 28 30 25 53 58 43 49 53 49 45 36 26 2 344 339 335 325 328 328 297 295 318 353 55 62
159 153 150 127 46 10 8 354 342 332 330 318 308 300 286 286 311 9 39 36 48 54 62 63 63 55 45 39 31 19 6 358 355 353 345 339 334 320 312 308 284 265 324
171 180 176 153 79 38 24 338 1 14 343 350 306 253 267 285 31 69 73 79 89 81 77 73 62 53 44 34 23 19 13 3 356 357 357 354 351 345 339 329 310 292 278
187 187 193 197 125 97 59 2 32 51 50 48 74 113 134 107 79 85 93 98 99 83 79 73 65 53 43 37 27 23 19 14 7 2 358 353 349 348 348 347 333 315 305
205 208 204 222 256 58 87 110 116 133 143 129 127 131 124 107 101 105 105 106 97 93 83 69 57 45 32 25 21 15 10 6 3 3 3 358 355 353 358 351 341 329 321
209 210 206 200 136 98 121 137 135 138 132 127 130 129 124 114 108 110 114 111 108 95 77 62 46 31 23 15 9 6 3 3 1 4 8 13 13 4 0 356 355 352 353
205 207 199 171 103 113 142 147 141 139 133 132 133 130 126 118 117 120 119 110 99 86 69 48 30 21 14 7 3 1 359 2 8 14 10 17 19 12 8 11 17 21 21
180 180 162 136 121 142 147 150 149 140 136 140 139 135 130 126 124 125 116 103 86 70 50 31 19 11 5 360 0 1 2 6 16 14 9 17 21 22 20 17 14 11 6
48 75 136 132 149 137 148 156 154 146 148 147 144 141 138 134 133 125 111 94 71 51 34 17 8 3 357 354 358 2 4 13 13 14 8 14 17 15 10 3 359 1 353
125 88 87 126 138 146 153 162 158 153 150 149 150 145 143 140 138 129 115 83 55 33 15 6 1 357 352 350 355 360 5 6 7 12 7 5 359 358 350 346 347 349 344
188 143 101 113 145 161 164 168 168 163 161 159 157 153 151 151 150 142 112 67 29 13 2 356 353 351 351 349 349 352 359 359 2 2 357 352 344 340 346 345 342 347 346
205 180 141 136 144 179 174 171 168 171 168 164 160 168 165 160 161 140 84 28 4 355 350 348 349 347 345 345 341 345 352 354 356 354 347 344 341 342 343 348 345 343 338
207 197 162 142 148 182 178 184 175 175 175 171 170 180 178 175 172 176 7 352 343 341 342 344 344 342 338 339 341 339 345 348 349 348 342 336 335 334 338 338 340 334 329
212 198 180 172 162 181 178 186 180 185 182 181 182 182 187 184 192 212 272 314 328 335 336 337 338 338 336 336 339 337 341 345 343 339 331 328 327 328 330 328 325 316 318
217 207 189 188 166 172 190 194 192 195 190 191 190 186 192 202 218 239 266 299 318 325 326 333 336 336 334 333 334 336 340 339 335 334 327 319 321 320 322 321 323 326 328
207 207 192 185 177 165 172 189 195 209 202 203 201 191 201 210 227 254 277 299 317 319 330 333 334 336 332 333 337 341 342 334 330 330 322 322 322 324 325 325 329 330 329
199 192 183 166 162 169 156 179 202 220 213 212 211 205 205 213 238 260 278 297 309 325 333 333 334 339 338 338 337 336 337 333 325 322 321 324 325 325 326 329 330 331 327
197 185 170 161 167 159 158 174 219 221 218 218 220 216 211 216 228 252 277 297 314 330 334 338 338 338 342 335 332 332 329 324 322 322 326 323 322 327 328 330 331 332 330
210 200 182 160 157 171 167 172 230 249 232 230 230 219 215 216 226 244 272 297 316 334 339 343 343 338 340 337 331 328 325 322 323 323 324 322 324 326 327 330 331 331 329
221 212 204 185 156 162 173 186 203 231 232 229 233 223 217 216 221 233 262 290 317 334 345 351 350 346 340 340 337 331 328 324 322 324 323 324 325 328 330 328 328 333 331
230 219 209 195 155 161 168 194 233 243 242 235 232 224 218 217 220 230 249 280 310 331 347 353 354 353 347 343 342 335 330 329 323 325 327 327 325 327 328 326 330 333 329
229 226 217 205 184 175 189 198 206 241 248 246 238 228 219 219 218 227 242 261 289 322 332 340 350 355 355 349 343 339 333 331 327 328 329 327 325 329 330 328 330 330 327
227 224 220 218 209 206 212 215 191 227 226 218 215 218 220 220 225 227 230 243 263 298 307 322 341 350 354 352 344 339 335 330 327 325 327 327 327 329 329 328 330 328 329
221 227 230 226 231 234 235 231 232 255 221 229 227 219 217 218 224 234 243 248 260 271 284 303 323 341 346 348 346 340 336 331 326 325 326 328 327 328 329 329 328 328 328
224 236 242 241 239 241 249 247 217 248 234 236 227 212 211 218 224 237 255 261 267 268 279 295 307 326 338 344 341 340 337 333 327 326 328 328 327 329 330 329 327 329 331